Location: Unspecified
(49.2170°N, 0.0000°E)
Time: 11:41:52
(UTC+00:00)

Vanguard 1 - Pass Details

Date: 18 June 2021
Orbit: 651 x 3832 km, 34.2° (Epoch: 23 July)

Event Time Altitude Azimuth Distance (km) Brightness Sun altitude
Rises 21:23:38 0° 230° (SW) 7,946 14.7 -9.3°
Reaches altitude 10° 21:29:37 10° 224° (SW) 6,923 14.3 -9.9°
Maximum altitude 21:49:32 41° 164° (SSE) 4,104 12.7 -11.7°
Drops below altitude 10° 22:03:17 10° 101° (ESE) 4,900 13.3 -12.7°
Sets 22:06:38 0° 94° (E) 5,531 13.6 -13.0°
